STARLINK-5179 (54102 NORAD) Tracking and Keplerian Element Data

This shows tracking and keplerian element data for the satellite.

Feedback or suggestion? Click here.




ElementValue
Catalog54102
NameSTARLINK-5179
Epoch Orbit549
Epoch Day325.33334491
Epoch Year2022
RAAN350.8746
Inclination53.2146
Eccentricity0.000391
Argument of Perigee3.7205
Mean Anonmoly351.2764
Mean Motion15.73165028
Decay Rate0.00029538
L11 54102U 22136BD 22325.33334491 .00029538 00000+0 21440-3 0 9990
L22 54102 53.2146 350.8746 0003910 3.7205 351.2764 15.73165028 5492



Live tracking and technical data element details for STARLINK-5179 (NORAD 54102). STARLINK-5179 can be tracked NOW for your location showing map with azimuth and elevation plus other details from your city location.







IsCatalogInMostPopularTable: catalog: 54102, numindb: 1
Update: records affected: 1



GetName: 54102 STARLINK-5179

Hit Count: updated at: Fri, 09 Dec 2022 20:00:07 GMT